When you browse on this site, cookies collect data to enhance your experience and personalize the content and advertising you see.
Visit our Privacy Policy to learn more. By continuing to use the site, you agree to this use of cookies and data.
  • In Austria
  • List of Countries
  • For 7 days
  • Water Temperature
  • Satellite Maps
  • Weather Map
  • News
  • Weather Widgets
  • user-avatar
    Login

    Hourly Weather Stepanakert

    Today, 21 May, Tuesday

    Time Temperature Precipitation Wind Pressure Humidity
    00:00 +15°C° 0.8 mm 1 mps 692 mmHg 83%
    01:00 +15°C° 0.5 mm 1 mps 692 mmHg 82%
    02:00 +14°C° 0.5 mm 1 mps 692 mmHg 81%
    03:00 +14°C° 0 mm 1 mps 692 mmHg 80%
    04:00 +14°C° 0.2 mm 1 mps 692 mmHg 78%
    05:00 +15°C° 0.2 mm 1 mps 693 mmHg 75%
    06:00 +15°C° 0.2 mm 1 mps 694 mmHg 73%
    07:00 +16°C° 0 mm 1 mps 694 mmHg 67%
    08:00 +18°C° 0 mm 2 mps 694 mmHg 62%
    09:00 +19°C° 0 mm 4 mps 695 mmHg 56%
    10:00 +19°C° 0 mm 4 mps 695 mmHg 56%
    11:00 +20°C° 0 mm 4 mps 695 mmHg 56%
    12:00 +20°C° 0 mm 4 mps 695 mmHg 56%
    13:00 +20°C° 0 mm 4 mps 695 mmHg 57%
    14:00 +20°C° 0 mm 4 mps 695 mmHg 57%
    15:00 +20°C° 0 mm 4 mps 694 mmHg 58%
    16:00 +19°C° 0 mm 3 mps 695 mmHg 61%
    17:00 +18°C° 0 mm 3 mps 695 mmHg 64%
    18:00 +18°C° 0 mm 3 mps 695 mmHg 67%
    19:00 +16°C° 0 mm 2 mps 695 mmHg 71%
    20:00 +15°C° 0 mm 1 mps 695 mmHg 75%
    21:00 +13°C° 0 mm 1 mps 695 mmHg 79%
    22:00 +13°C° 0 mm 1 mps 695 mmHg 79%
    23:00 +13°C° 0 mm 1 mps 695 mmHg 79%

    Tomorrow, 22 May, Wednesday

    Time Temperature Precipitation Wind Pressure Humidity
    00:00 +12°C° 0 mm 1 mps 695 mmHg 79%
    01:00 +12°C° 0 mm 1 mps 695 mmHg 78%
    02:00 +12°C° 0 mm 1 mps 695 mmHg 77%
    03:00 +12°C° 0 mm 1 mps 695 mmHg 77%
    04:00 +13°C° 0 mm 1 mps 695 mmHg 75%
    05:00 +13°C° 0 mm 1 mps 695 mmHg 72%
    06:00 +13°C° 0 mm 0 mps 695 mmHg 70%
    07:00 +16°C° 0 mm 1 mps 695 mmHg 66%
    08:00 +18°C° 0 mm 1 mps 695 mmHg 62%
    09:00 +18°C° 0 mm 2 mps 695 mmHg 57%
    10:00 +19°C° 0 mm 2 mps 695 mmHg 56%
    11:00 +20°C° 0 mm 3 mps 694 mmHg 55%
    12:00 +21°C° 0 mm 3 mps 694 mmHg 54%
    13:00 +22°C° 0.2 mm 3 mps 694 mmHg 55%
    14:00 +22°C° 0.2 mm 3 mps 693 mmHg 56%
    15:00 +22°C° 0.2 mm 3 mps 693 mmHg 58%
    16:00 +21°C° 0.5 mm 2 mps 693 mmHg 62%
    17:00 +20°C° 0.5 mm 2 mps 692 mmHg 67%
    18:00 +20°C° 0.5 mm 1 mps 692 mmHg 71%
    19:00 +19°C° 0.1 mm 1 mps 692 mmHg 75%
    20:00 +18°C° 0.1 mm 1 mps 692 mmHg 78%
    21:00 +16°C° 0.1 mm 1 mps 692 mmHg 81%
    22:00 +16°C° 0.1 mm 1 mps 692 mmHg 81%
    23:00 +16°C° 0.1 mm 1 mps 692 mmHg 80%

    Day after tomorrow, 23 May, Thursday

    Time Temperature Precipitation Wind Pressure Humidity
    00:00 +16°C° 0.1 mm 1 mps 692 mmHg 80%
    01:00 +15°C° 0.1 mm 1 mps 692 mmHg 81%
    02:00 +15°C° 0.1 mm 1 mps 691 mmHg 82%
    03:00 +14°C° 0.1 mm 1 mps 691 mmHg 83%
    04:00 +15°C° 0 mm 1 mps 691 mmHg 81%
    05:00 +16°C° 0 mm 1 mps 691 mmHg 79%
    06:00 +16°C° 0 mm 1 mps 692 mmHg 77%
    07:00 +18°C° 0 mm 2 mps 692 mmHg 72%
    08:00 +20°C° 0 mm 2 mps 692 mmHg 67%
    09:00 +21°C° 0 mm 2 mps 692 mmHg 62%
    10:00 +23°C° 0.2 mm 2 mps 692 mmHg 60%
    11:00 +24°C° 0.2 mm 2 mps 692 mmHg 58%
    12:00 +25°C° 0.2 mm 3 mps 692 mmHg 57%
    13:00 +25°C° 0.7 mm 3 mps 691 mmHg 58%
    14:00 +25°C° 0.7 mm 3 mps 691 mmHg 59%
    15:00 +25°C° 0.7 mm 3 mps 690 mmHg 60%
    16:00 +24°C° 0.7 mm 2 mps 690 mmHg 66%
    17:00 +23°C° 0.7 mm 2 mps 690 mmHg 71%
    18:00 +21°C° 0.7 mm 2 mps 690 mmHg 76%
    19:00 +21°C° 0.6 mm 1 mps 690 mmHg 79%
    20:00 +20°C° 0.6 mm 1 mps 691 mmHg 82%
    21:00 +17°C° 0.6 mm 0 mps 691 mmHg 85%
    22:00 +18°C° 0.4 mm 1 mps 691 mmHg 86%
    23:00 +16°C° 0.4 mm 1 mps 691 mmHg 88%

    24 May, Friday

    Time Temperature Precipitation Wind Pressure Humidity
    00:00 +16°C° 0.4 mm 1 mps 692 mmHg 89%
    01:00 +15°C° 0.5 mm 1 mps 691 mmHg 89%
    02:00 +15°C° 0.5 mm 1 mps 691 mmHg 88%
    03:00 +15°C° 0.5 mm 1 mps 691 mmHg 88%
    04:00 +15°C° 0 mm 1 mps 692 mmHg 85%
    05:00 +16°C° 0 mm 1 mps 692 mmHg 83%
    06:00 +18°C° 0 mm 1 mps 692 mmHg 80%
    07:00 +19°C° 0 mm 1 mps 692 mmHg 76%
    08:00 +19°C° 0 mm 2 mps 693 mmHg 71%
    09:00 +21°C° 0 mm 2 mps 693 mmHg 67%
    10:00 +23°C° 0.1 mm 2 mps 693 mmHg 65%
    11:00 +23°C° 0.1 mm 2 mps 692 mmHg 62%
    12:00 +24°C° 0.1 mm 3 mps 692 mmHg 60%
    13:00 +24°C° 0.4 mm 2 mps 692 mmHg 60%
    14:00 +25°C° 0.4 mm 2 mps 692 mmHg 60%
    15:00 +25°C° 0.4 mm 2 mps 692 mmHg 59%
    16:00 +24°C° 0.3 mm 2 mps 692 mmHg 64%
    17:00 +24°C° 0.3 mm 2 mps 692 mmHg 68%
    18:00 +23°C° 0.3 mm 2 mps 692 mmHg 72%
    19:00 +21°C° 0.2 mm 2 mps 692 mmHg 75%
    20:00 +19°C° 0.2 mm 2 mps 693 mmHg 78%
    21:00 +18°C° 0.2 mm 2 mps 693 mmHg 80%
    22:00 +18°C° 0.2 mm 2 mps 693 mmHg 78%
    23:00 +18°C° 0.2 mm 2 mps 693 mmHg 76%

    25 May, Saturday

    Time Temperature Precipitation Wind Pressure Humidity
    00:00 +18°C° 0.2 mm 2 mps 693 mmHg 74%
    01:00 +17°C° 0 mm 2 mps 693 mmHg 74%
    02:00 +18°C° 0 mm 1 mps 693 mmHg 74%
    03:00 +18°C° 0 mm 1 mps 693 mmHg 74%
    04:00 +18°C° 0 mm 1 mps 693 mmHg 73%
    05:00 +19°C° 0 mm 1 mps 693 mmHg 71%
    06:00 +20°C° 0 mm 1 mps 694 mmHg 70%
    07:00 +22°C° 0 mm 1 mps 694 mmHg 65%
    08:00 +24°C° 0 mm 2 mps 694 mmHg 59%
    09:00 +25°C° 0 mm 2 mps 694 mmHg 54%
    10:00 +27°C° 0 mm 2 mps 694 mmHg 51%
    11:00 +28°C° 0 mm 2 mps 693 mmHg 49%
    12:00 +29°C° 0 mm 2 mps 693 mmHg 46%
    13:00 +29°C° 0 mm 2 mps 693 mmHg 46%
    14:00 +30°C° 0 mm 2 mps 692 mmHg 45%
    15:00 +30°C° 0 mm 2 mps 692 mmHg 44%
    16:00 +29°C° 0 mm 2 mps 692 mmHg 51%
    17:00 +28°C° 0 mm 2 mps 691 mmHg 57%
    18:00 +27°C° 0 mm 2 mps 691 mmHg 64%
    19:00 +25°C° 0 mm 2 mps 691 mmHg 63%
    20:00 +24°C° 0 mm 2 mps 691 mmHg 63%
    21:00 +23°C° 0 mm 2 mps 691 mmHg 62%
    22:00 +21°C° 0 mm 2 mps 691 mmHg 59%
    23:00 +21°C° 0 mm 2 mps 691 mmHg 55%

    26 May, Sunday

    Time Temperature Precipitation Wind Pressure Humidity
    00:00 +21°C° 0 mm 2 mps 690 mmHg 52%
    01:00 +20°C° 0 mm 2 mps 690 mmHg 51%
    02:00 +20°C° 0 mm 2 mps 690 mmHg 50%
    03:00 +19°C° 0 mm 2 mps 690 mmHg 49%
    04:00 +20°C° 0 mm 2 mps 690 mmHg 52%
    05:00 +21°C° 0 mm 2 mps 690 mmHg 54%
    06:00 +22°C° 0 mm 1 mps 690 mmHg 56%
    07:00 +24°C° 0 mm 2 mps 690 mmHg 53%
    08:00 +26°C° 0 mm 2 mps 690 mmHg 50%
    09:00 +28°C° 0 mm 2 mps 690 mmHg 47%
    10:00 +29°C° 0 mm 2 mps 690 mmHg 45%
    11:00 +30°C° 0 mm 3 mps 690 mmHg 43%
    12:00 +31°C° 0 mm 3 mps 690 mmHg 41%
    13:00 +30°C° 0.1 mm 3 mps 689 mmHg 45%
    14:00 +30°C° 0.1 mm 3 mps 689 mmHg 49%
    15:00 +29°C° 0.1 mm 3 mps 689 mmHg 53%
    16:00 +28°C° 0 mm 3 mps 689 mmHg 58%
    17:00 +27°C° 0 mm 3 mps 689 mmHg 62%
    18:00 +26°C° 0 mm 3 mps 689 mmHg 67%
    19:00 +24°C° 0.3 mm 2 mps 690 mmHg 71%
    20:00 +21°C° 0.3 mm 2 mps 690 mmHg 75%
    21:00 +21°C° 0.3 mm 1 mps 690 mmHg 79%
    22:00 +20°C° 0 mm 1 mps 690 mmHg 79%
    23:00 +20°C° 0 mm 1 mps 691 mmHg 80%
    Show more